When you browse on this site, cookies collect data to enhance your experience and personalize the content and advertising you see.
Visit our Privacy Policy to learn more. By continuing to use the site, you agree to this use of cookies and data.
  • In Denmark
  • List of Countries
  • For 7 days
  • Water Temperature
  • Satellite Maps
  • Weather Map
  • Weather Widgets
  • user-avatar
    Login

    Hourly Weather Townsville

    Today, 20 November, Tuesday

    Time Temperature Precipitation Wind Pressure Humidity
    00:00 +25°C° 0.1 mm 4 mps 753 mmHg 85%
    01:00 +25°C° 0.1 mm 4 mps 753 mmHg 86%
    02:00 +25°C° 0.1 mm 4 mps 753 mmHg 87%
    03:00 +25°C° 0.1 mm 3 mps 753 mmHg 88%
    04:00 +25°C° 0.1 mm 3 mps 753 mmHg 90%
    05:00 +26°C° 0.2 mm 3 mps 753 mmHg 86%
    06:00 +26°C° 0.2 mm 3 mps 753 mmHg 83%
    07:00 +27°C° 0.2 mm 3 mps 753 mmHg 80%
    08:00 +28°C° 0.1 mm 4 mps 753 mmHg 73%
    09:00 +30°C° 0.1 mm 4 mps 753 mmHg 67%
    10:00 +32°C° 0.1 mm 4 mps 753 mmHg 60%
    11:00 +33°C° 0 mm 5 mps 753 mmHg 56%
    12:00 +34°C° 0 mm 5 mps 752 mmHg 52%
    13:00 +35°C° 0 mm 5 mps 752 mmHg 47%
    14:00 +34°C° 0 mm 5 mps 751 mmHg 50%
    15:00 +33°C° 0 mm 5 mps 751 mmHg 52%
    16:00 +33°C° 0 mm 5 mps 751 mmHg 54%
    17:00 +30°C° 0 mm 4 mps 751 mmHg 62%
    18:00 +28°C° 0 mm 4 mps 751 mmHg 71%
    19:00 +27°C° 0 mm 4 mps 752 mmHg 79%
    20:00 +26°C° 0 mm 4 mps 752 mmHg 82%
    21:00 +26°C° 0 mm 4 mps 752 mmHg 84%
    22:00 +26°C° 0 mm 4 mps 753 mmHg 86%
    23:00 +26°C° 0 mm 4 mps 752 mmHg 87%

    Tomorrow, 21 November, Wednesday

    Time Temperature Precipitation Wind Pressure Humidity
    00:00 +26°C° 0 mm 4 mps 752 mmHg 88%
    01:00 +26°C° 0 mm 4 mps 752 mmHg 88%
    02:00 +26°C° 0.1 mm 4 mps 752 mmHg 89%
    03:00 +26°C° 0.1 mm 4 mps 752 mmHg 89%
    04:00 +26°C° 0.1 mm 3 mps 751 mmHg 89%
    05:00 +26°C° 0 mm 4 mps 752 mmHg 85%
    06:00 +27°C° 0 mm 4 mps 752 mmHg 81%
    07:00 +28°C° 0 mm 4 mps 753 mmHg 78%
    08:00 +29°C° 0 mm 4 mps 753 mmHg 71%
    09:00 +30°C° 0 mm 4 mps 753 mmHg 64%
    10:00 +33°C° 0 mm 4 mps 753 mmHg 57%
    11:00 +34°C° 0 mm 5 mps 752 mmHg 54%
    12:00 +35°C° 0 mm 5 mps 751 mmHg 51%
    13:00 +36°C° 0 mm 5 mps 751 mmHg 48%
    14:00 +35°C° 0 mm 5 mps 750 mmHg 51%
    15:00 +34°C° 0 mm 5 mps 750 mmHg 55%
    16:00 +33°C° 0 mm 5 mps 749 mmHg 58%
    17:00 +30°C° 0 mm 5 mps 749 mmHg 66%
    18:00 +29°C° 0 mm 5 mps 750 mmHg 75%
    19:00 +27°C° 0 mm 5 mps 750 mmHg 83%
    20:00 +27°C° 0 mm 5 mps 750 mmHg 84%
    21:00 +27°C° 0 mm 5 mps 750 mmHg 85%
    22:00 +27°C° 0 mm 5 mps 751 mmHg 85%
    23:00 +27°C° 0 mm 5 mps 750 mmHg 86%

    Day after tomorrow, 22 November, Thursday

    Time Temperature Precipitation Wind Pressure Humidity
    00:00 +26°C° 0 mm 4 mps 750 mmHg 86%
    01:00 +26°C° 0 mm 4 mps 750 mmHg 87%
    02:00 +26°C° 0 mm 4 mps 750 mmHg 88%
    03:00 +26°C° 0 mm 4 mps 749 mmHg 89%
    04:00 +26°C° 0 mm 4 mps 749 mmHg 90%
    05:00 +27°C° 0 mm 4 mps 750 mmHg 86%
    06:00 +28°C° 0 mm 4 mps 751 mmHg 82%
    07:00 +28°C° 0 mm 4 mps 751 mmHg 79%
    08:00 +30°C° 0.1 mm 4 mps 751 mmHg 71%
    09:00 +33°C° 0.1 mm 5 mps 752 mmHg 64%
    10:00 +34°C° 0.1 mm 5 mps 752 mmHg 57%
    11:00 +35°C° 0.1 mm 5 mps 751 mmHg 55%
    12:00 +35°C° 0.1 mm 5 mps 751 mmHg 53%
    13:00 +36°C° 0.1 mm 5 mps 750 mmHg 51%
    14:00 +35°C° 0 mm 5 mps 750 mmHg 55%
    15:00 +35°C° 0 mm 5 mps 749 mmHg 58%
    16:00 +34°C° 0 mm 5 mps 749 mmHg 62%
    17:00 +33°C° 0 mm 5 mps 749 mmHg 69%
    18:00 +30°C° 0 mm 4 mps 749 mmHg 77%
    19:00 +29°C° 0 mm 4 mps 750 mmHg 85%
    20:00 +28°C° 0.6 mm 4 mps 750 mmHg 86%
    21:00 +28°C° 0.6 mm 3 mps 751 mmHg 87%
    22:00 +28°C° 0.6 mm 3 mps 751 mmHg 88%
    23:00 +28°C° 1.7 mm 3 mps 751 mmHg 87%

    23 November, Friday

    Time Temperature Precipitation Wind Pressure Humidity
    00:00 +28°C° 1.7 mm 3 mps 751 mmHg 87%
    01:00 +28°C° 1.7 mm 2 mps 750 mmHg 87%
    02:00 +28°C° 1 mm 2 mps 750 mmHg 86%
    03:00 +27°C° 1 mm 2 mps 750 mmHg 85%
    04:00 +27°C° 1 mm 2 mps 750 mmHg 84%
    05:00 +28°C° 0.7 mm 2 mps 751 mmHg 79%
    06:00 +29°C° 0.7 mm 2 mps 751 mmHg 74%
    07:00 +30°C° 0.7 mm 2 mps 752 mmHg 69%
    08:00 +32°C° 0.5 mm 2 mps 752 mmHg 61%
    09:00 +36°C° 0.5 mm 2 mps 752 mmHg 53%
    10:00 +38°C° 0.5 mm 3 mps 752 mmHg 44%
    11:00 +38°C° 0.5 mm 3 mps 752 mmHg 44%
    12:00 +37°C° 0.5 mm 3 mps 751 mmHg 45%
    13:00 +37°C° 0.5 mm 4 mps 750 mmHg 45%
    14:00 +37°C° 0.4 mm 4 mps 750 mmHg 47%
    15:00 +37°C° 0.4 mm 4 mps 750 mmHg 48%
    16:00 +37°C° 0.4 mm 4 mps 749 mmHg 50%
    17:00 +35°C° 0 mm 4 mps 749 mmHg 60%
    18:00 +33°C° 0 mm 4 mps 750 mmHg 71%
    19:00 +30°C° 0 mm 4 mps 750 mmHg 81%
    20:00 +29°C° 0 mm 3 mps 751 mmHg 83%
    21:00 +29°C° 0 mm 3 mps 751 mmHg 86%
    22:00 +28°C° 0 mm 3 mps 752 mmHg 88%
    23:00 +28°C° 0.1 mm 3 mps 751 mmHg 89%

    24 November, Saturday

    Time Temperature Precipitation Wind Pressure Humidity
    00:00 +28°C° 0.1 mm 2 mps 751 mmHg 91%
    01:00 +27°C° 0.1 mm 2 mps 751 mmHg 92%
    02:00 +27°C° 0.1 mm 2 mps 751 mmHg 93%
    03:00 +27°C° 0.1 mm 2 mps 751 mmHg 94%
    04:00 +27°C° 0.1 mm 1 mps 751 mmHg 94%
    05:00 +28°C° 0 mm 1 mps 751 mmHg 90%
    06:00 +29°C° 0 mm 1 mps 752 mmHg 85%
    07:00 +30°C° 0 mm 1 mps 752 mmHg 80%
    08:00 +32°C° 0 mm 1 mps 752 mmHg 68%
    09:00 +36°C° 0 mm 2 mps 752 mmHg 56%
    10:00 +38°C° 0 mm 3 mps 752 mmHg 45%
    11:00 +39°C° 0 mm 3 mps 751 mmHg 42%
    12:00 +41°C° 0 mm 4 mps 751 mmHg 40%
    13:00 +42°C° 0 mm 5 mps 750 mmHg 37%
    14:00 +40°C° 0 mm 5 mps 749 mmHg 42%
    15:00 +39°C° 0 mm 5 mps 749 mmHg 47%
    16:00 +38°C° 0 mm 6 mps 748 mmHg 52%
    17:00 +35°C° 0 mm 5 mps 749 mmHg 63%
    18:00 +33°C° 0 mm 5 mps 749 mmHg 74%
    19:00 +30°C° 0 mm 5 mps 749 mmHg 85%
    20:00 +29°C° 0 mm 5 mps 749 mmHg 86%
    21:00 +29°C° 0 mm 4 mps 750 mmHg 86%
    22:00 +29°C° 0 mm 4 mps 750 mmHg 87%
    23:00 +29°C° 0 mm 4 mps 750 mmHg 87%

    25 November, Sunday

    Time Temperature Precipitation Wind Pressure Humidity
    00:00 +29°C° 0 mm 4 mps 749 mmHg 86%
    01:00 +29°C° 0 mm 4 mps 749 mmHg 85%
    02:00 +29°C° 0 mm 4 mps 749 mmHg 86%
    03:00 +29°C° 0 mm 4 mps 749 mmHg 88%
    04:00 +28°C° 0 mm 4 mps 749 mmHg 89%
    05:00 +29°C° 0 mm 4 mps 749 mmHg 82%
    06:00 +30°C° 0 mm 4 mps 749 mmHg 74%
    07:00 +32°C° 0 mm 4 mps 750 mmHg 67%
    08:00 +35°C° 0 mm 5 mps 750 mmHg 53%
    09:00 +39°C° 0 mm 5 mps 749 mmHg 40%
    10:00 +42°C° 0 mm 5 mps 749 mmHg 26%
    11:00 +44°C° 0 mm 6 mps 748 mmHg 24%
    12:00 +45°C° 0 mm 6 mps 747 mmHg 22%
    13:00 +46°C° 0 mm 6 mps 746 mmHg 20%
    14:00 +45°C° 0 mm 6 mps 746 mmHg 24%
    15:00 +44°C° 0 mm 7 mps 745 mmHg 29%
    16:00 +43°C° 0 mm 7 mps 745 mmHg 33%
    17:00 +39°C° 0 mm 6 mps 745 mmHg 43%
    18:00 +36°C° 0 mm 5 mps 746 mmHg 53%
    19:00 +34°C° 0 mm 4 mps 746 mmHg 63%
    20:00 +34°C° 0 mm 4 mps 747 mmHg 65%
    21:00 +33°C° 0 mm 4 mps 747 mmHg 67%
    22:00 +33°C° 0 mm 4 mps 748 mmHg 69%
    23:00 +33°C° 0 mm 4 mps 748 mmHg 69%
    Show more